User: anonymous   Login
Location: Unspecified
(0.0000°N, 0.0000°E)
Time: 15:13:44
(UTC+00:00)
Language:

USA 48 - Orbit

View from above orbital plane
View from above orbital plane
View from above satellite
View from above satellite

Ground track
Ground track

The orbit data is extracted from the following two-line orbital elements,

1 20355U 89090B   18310.61327922 0.00000000  00000-0  00000-0 0    09
2 20355  18.2497   9.4102 0279775  36.2715 325.5925  1.00734325    01
Epoch (UTC): 06 November 2018 14:43:07
Eccentricity: 0.0279775
inclination: 18.2497°
perigee height: 34481 km
apogee height: 36833 km
right ascension of ascending node: 9.4102°
argument of perigee: 36.2715°
revolutions per day: 1.00734325
mean anomaly at epoch: 325.5925°
orbit number at epoch: 0

The dashed part of the orbit path shows where the satellite is in the earth's shadow,  

DLR